FW3073 Weather Reports


Display with metric or nautical units.
time (UTC)temp
F
wind
direction
speed
MPH
gust
MPH
rain 1hr
in
rain 24hr
in
rain mn
in
humidity
%
barometer
mb
20260505235003 64 198 5.0 16.0 0.00 0.00 0.00 53 1005.6
20260505234003 65 191 5.0 16.0 0.00 0.00 0.00 52 1005.3
20260505233003 65 194 4.0 9.0 0.00 0.00 0.00 51 1005.3
20260505232003 66 174 5.0 15.0 0.00 0.00 0.00 50 1004.9
20260505231004 66 186 5.0 14.0 0.00 0.00 0.00 49 1004.6
20260505230003 67 183 4.0 11.0 0.00 0.00 0.00 48 1004.3
20260505225003 67 182 5.0 19.0 0.00 0.00 0.00 46 1004.3
20260505224003 68 191 5.0 18.0 0.00 0.00 0.00 45 1003.9
20260505223003 69 193 6.0 15.0 0.00 0.00 0.00 43 1004.3
20260505222004 69 181 5.0 11.0 0.00 0.00 0.00 42 1003.9
20260505221003 70 176 5.0 15.0 0.00 0.00 0.00 41 1003.9
20260505220004 71 176 5.0 15.0 0.00 0.00 0.00 40 1003.9
20260505215003 71 168 5.0 11.0 0.00 0.00 0.00 40 1003.6
20260505214003 71 192 4.0 14.0 0.00 0.00 0.00 39 1003.6
20260505213003 72 186 4.0 13.0 0.00 0.00 0.00 38 1003.6
20260505212003 72 178 5.0 18.0 0.00 0.00 0.00 38 1003.6
20260505211003 72 193 5.0 17.0 0.00 0.00 0.00 38 1003.9
20260505210004 72 182 4.0 14.0 0.00 0.00 0.00 37 1003.9
20260505205003 72 192 5.0 17.0 0.00 0.00 0.00 38 1003.9
20260505204003 73 173 5.0 17.0 0.00 0.00 0.00 37 1003.6
20260505203003 73 200 7.0 15.0 0.00 0.00 0.00 37 1003.9
20260505202004 73 198 7.0 18.0 0.00 0.00 0.00 36 1003.9
20260505201003 74 183 6.0 15.0 0.00 0.00 0.00 35 1003.6
20260505200003 73 206 6.0 16.0 0.00 0.00 0.00 35 1003.9
20260505195004 74 196 5.0 17.0 0.00 0.00 0.00 35 1003.9
20260505194003 74 197 6.0 16.0 0.00 0.00 0.00 35 1004.6
20260505193004 74 192 6.0 16.0 0.00 0.00 0.00 33 1004.3
20260505192003 74 190 6.0 18.0 0.00 0.00 0.00 33 1004.6
20260505191003 74 174 5.0 15.0 0.00 0.00 0.00 32 1004.6
20260505190004 74 198 6.0 16.0 0.00 0.00 0.00 31 1004.6
20260505185003 74 187 6.0 18.0 0.00 0.00 0.00 31 1005.3
20260505184003 74 181 5.0 21.0 0.00 0.00 0.00 30 1005.3
20260505183004 74 180 6.0 16.0 0.00 0.00 0.00 30 1005.3
20260505182003 75 174 4.0 11.0 0.00 0.00 0.00 30 1005.3
20260505181004 74 200 5.0 17.0 0.00 0.00 0.00 31 1006.0
20260505180003 73 197 6.0 19.0 0.00 0.00 0.00 31 1006.0
20260505175004 73 186 6.0 14.0 0.00 0.00 0.00 31 1006.3
20260505174003 74 184 5.0 21.0 0.00 0.00 0.00 33 1006.3
20260505173004 73 187 5.0 18.0 0.00 0.00 0.00 32 1006.0
20260505172003 73 176 6.0 17.0 0.00 0.00 0.00 33 1006.3
20260505171004 74 187 4.0 13.0 0.00 0.00 0.00 33 1006.3
20260505170003 73 188 6.0 17.0 0.00 0.00 0.00 35 1006.0
20260505165004 73 169 6.0 16.0 0.00 0.00 0.00 34 1006.0
20260505164003 74 188 4.0 13.0 0.00 0.00 0.00 33 1006.0
20260505163003 73 188 5.0 15.0 0.00 0.00 0.00 35 1006.3
20260505162004 73 185 5.0 17.0 0.00 0.00 0.00 36 1006.0
20260505161003 73 217 5.0 13.0 0.00 0.00 0.00 34 1006.3
20260505153004 74 213 5.0 10.0 0.00 0.00 0.00 32 1006.3
20260505152003 73 228 5.0 13.0 0.00 0.00 0.00 35 1006.0
20260505151003 74 194 4.0 11.0 0.00 0.00 0.00 34 1006.3
20260505125004 58 184 2.0 4.0 0.00 0.00 0.00 64 1006.6
20260505124003 57 195 2.0 3.0 0.00 0.00 0.00 63 1006.6
20260505123003 57 178 1.0 3.0 0.00 0.00 0.00 64 1007.0
20260505122004 56 176 1.0 3.0 0.00 0.00 0.00 67 1007.0
20260505121003 55 190 1.0 2.0 0.00 0.01 0.00 68 1006.6
20260505120004 54 199 1.0 2.0 0.00 0.01 0.00 72 1007.0
20260505115003 52 196 1.0 4.0 0.00 0.01 0.00 75 1007.0
20260505114003 51 168 1.0 2.0 0.00 0.01 0.00 75 1007.0
20260505113004 49 187 1.0 3.0 0.00 0.01 0.00 78 1007.0
20260505112003 49 174 1.0 4.0 0.00 0.01 0.00 79 1007.0
20260505111003 48 187 2.0 4.0 0.00 0.01 0.00 82 1007.3
20260505102004 44 189 0.0 2.0 0.00 0.01 0.00 89 1007.0
20260505101003 44 190 0.0 1.0 0.00 0.01 0.00 90 1006.6
20260505100003 44 207 0.0 1.0 0.00 0.01 0.00 91 1006.6
20260505095004 44 221 0.0 1.0 0.00 0.01 0.00 91 1006.6
20260505094003 43 0 0.0 0.0 0.00 0.01 0.00 93 1006.6
20260505093003 42 209 0.0 1.0 0.00 0.01 0.00 94 1006.3
20260505092004 42 205 0.0 2.0 0.00 0.01 0.00 94 1006.3
20260505091003 42 0 0.0 0.0 0.00 0.01 0.00 93 1006.0
20260505090004 43 155 0.0 2.0 0.00 0.01 0.00 93 1006.6
20260505085003 43 213 0.0 3.0 0.00 0.01 0.00 93 1006.6
20260505084003 42 188 0.0 1.0 0.00 0.01 0.00 93 1006.6
20260505083004 42 0 0.0 0.0 0.00 0.01 0.00 92 1006.6
20260505082003 43 0 0.0 0.0 0.00 0.01 0.00 92 1006.6
20260505081004 43 0 0.0 0.0 0.00 0.02 0.00 92 1006.6
20260505080004 43 0 0.0 0.0 0.00 0.02 0.00 92 1006.6
20260505075003 43 0 0.0 0.0 0.00 0.02 0.00 91 1006.3
20260505074003 43 0 0.0 0.0 0.00 0.03 0.00 92 1006.6
20260505073003 43 0 0.0 0.0 0.00 0.04 0.00 92 1006.6
20260505072004 42 0 0.0 0.0 0.00 0.05 0.00 92 1006.6
20260505071003 43 0 0.0 0.0 0.00 0.06 0.00 91 1006.6
20260505070004 43 188 0.0 1.0 0.00 0.08 0.00 91 1006.3
20260505065003 43 203 0.0 2.0 0.00 0.09 0.00 90 1006.6
20260505064004 43 191 0.0 1.0 0.00 0.11 0.00 89 1006.6
20260505063003 44 191 0.0 1.0 0.00 0.13 0.00 88 1006.3
20260505062004 45 205 0.0 2.0 0.00 0.14 0.00 86 1006.3
20260505061003 45 202 0.0 3.0 0.00 0.16 0.00 86 1006.0
20260505060004 45 199 0.0 2.0 0.00 0.18 0.00 86 1005.6
20260505055003 45 209 0.0 2.0 0.00 0.19 0.00 85 1006.0
20260505054003 45 204 1.0 6.0 0.00 0.21 0.00 85 1005.6
20260505053003 45 223 1.0 3.0 0.00 0.23 0.00 85 1006.0
20260505052003 45 214 1.0 6.0 0.00 0.25 0.00 84 1006.0
20260505051003 45 237 0.0 3.0 0.00 0.26 0.00 85 1005.6
20260505041003 46 260 1.0 4.0 0.00 0.35 0.00 82 1005.3
20260505040004 46 238 1.0 6.0 0.00 0.36 0.00 81 1005.3
20260505035004 46 219 1.0 4.0 0.00 0.37 0.00 81 1005.3
20260505034004 46 226 1.0 6.0 0.00 0.38 0.00 80 1005.3
20260505033003 46 247 1.0 4.0 0.00 0.38 0.00 81 1004.9
20260505032003 46 243 1.0 6.0 0.00 0.38 0.00 80 1004.9
20260505031004 46 244 1.0 7.0 0.00 0.38 0.00 79 1004.9
20260505030004 47 261 1.0 6.0 0.00 0.38 0.00 79 1004.6
20260505025004 47 268 2.0 8.0 0.00 0.38 0.38 78 1004.6
20260505024004 47 269 2.0 8.0 0.00 0.38 0.38 77 1004.3
20260505023003 47 269 2.0 8.0 0.00 0.38 0.38 77 1004.3
20260505022003 48 259 2.0 6.0 0.00 0.38 0.38 76 1004.3
20260505021004 48 244 2.0 7.0 0.00 0.38 0.38 75 1003.9
20260505020004 48 267 2.0 7.0 0.00 0.38 0.38 74 1003.6
20260505015003 49 276 2.0 9.0 0.00 0.38 0.38 73 1003.6
20260505014004 49 253 2.0 11.0 0.00 0.38 0.38 73 1003.6
20260505013004 49 243 2.0 7.0 0.00 0.39 0.38 72 1003.2
20260505012003 49 262 2.0 9.0 0.00 0.40 0.38 71 1003.2
20260505011004 49 252 2.0 6.0 0.00 0.41 0.38 69 1002.9
20260505010004 49 262 2.0 7.0 0.00 0.43 0.38 69 1002.6
20260505005004 50 252 2.0 7.0 0.00 0.47 0.38 68 1002.6
20260505004003 50 275 2.0 7.0 0.00 0.51 0.38 68 1002.6
20260505003004 50 277 3.0 14.0 0.00 0.56 0.38 67 1002.6
20260505002004 50 269 2.0 8.0 0.00 0.58 0.38 68 1001.9
20260505001003 50 244 2.0 7.0 0.00 0.59 0.38 69 1001.9
20260505000004 51 259 3.0 8.0 0.00 0.61 0.38 68 1001.9